Location: N�rnberg
(49.4489°N, 11.0797°E)
Time: 08:50:04
(UTC+02:00)

ISS - Visible Passes

Search period start: 28 May 2017 00:00
Search period end: 07 June 2017 00:00
Orbit: 402 x 408 km, 51.6° (Epoch: 28 May)

Date Brightness Start Highest point End Pass type
(mag) Time Alt. Az. Time Alt. Az. Time Alt. Az.
28 May -3.1 00:06:37 10° W 00:09:53 56° N 00:13:08 10° E visible
28 May -4.0 01:43:13 10° WNW 01:46:32 85° SSW 01:47:25 45° ESE visible
28 May -3.2 23:14:30 10° W 23:17:45 59° N 23:21:02 10° ENE visible
29 May -3.7 00:51:11 10° WNW 00:54:28 73° NNE 00:56:01 29° E visible
29 May -1.7 02:27:49 10° W 02:28:37 15° W 02:28:37 15° W visible
29 May -3.4 22:22:22 10° W 22:25:39 68° NNW 22:28:57 10° ENE visible
29 May -3.3 23:59:05 10° WNW 00:02:22 61° N 00:05:08 14° E visible
30 May -2.8 01:35:39 10° WNW 01:37:45 33° W 01:37:45 33° W visible
30 May -3.1 23:06:58 10° WNW 23:10:14 56° N 23:13:30 10° E visible
31 May -4.0 00:43:33 10° WNW 00:46:51 76° SSW 00:47:05 70° SSE visible
31 May -3.1 22:14:49 10° W 22:18:05 57° N 22:21:21 10° ENE visible
31 May -3.8 23:51:27 10° WNW 23:54:47 80° NNE 23:56:30 26° ESE visible
01 Jun -1.6 01:28:11 10° W 01:29:07 16° W 01:29:07 16° W visible
01 Jun -3.4 22:59:21 10° WNW 23:02:39 65° N 23:05:56 10° E visible
02 Jun -3.1 00:35:56 10° WNW 00:38:36 39° WSW 00:38:36 39° WSW visible
02 Jun -3.2 22:07:12 10° WNW 22:10:29 57° N 22:13:44 10° E visible
02 Jun -3.9 23:43:46 10° WNW 23:47:03 66° SSW 23:48:06 38° SE visible
03 Jun -3.8 22:51:38 10° WNW 22:54:57 89° NNE 22:57:39 15° ESE visible
04 Jun -2.1 00:28:28 10° W 00:30:17 21° WSW 00:30:17 21° WSW visible
04 Jun -3.5 21:59:30 10° WNW 22:02:48 69° NNE 22:06:05 10° E visible
04 Jun -3.1 23:36:06 10° W 23:39:11 36° SSW 23:39:51 32° S visible
05 Jun -3.6 22:43:53 10° WNW 22:47:08 57° SSW 22:49:26 17° SE visible
06 Jun -1.3 00:21:37 10° WSW 00:22:05 11° WSW 00:22:05 11° WSW visible
06 Jun -2.1 23:28:39 10° W 23:31:09 20° SW 23:31:42 19° SSW visible
